Home > Weather > Bangui > Past weeks

Flag for Central African Republic Past Weather in Bangui, Central African Republic — Yesterday and Last 2 Weeks

Now
90 °F

Scattered clouds.


Feels Like: 98 °F
Forecast: 70 / 98 °F
Wind: 6 mph from West

Location: Bangui Airport

Current Time: Jun 30, 2016 at 3:10:59 PM

Latest Report: Jun 30, 2016 at 2:00 PM


Visibility: N/A

Pressure: 29.92 "Hg

Humidity: 59%

Dew Point: 73 °F

Location of BanguiLocation

Past Weather in Bangui — Graph

°F

Bangui Temperature Yesterday

Maximum temperature yesterday: 82 °F (at 1:00 PM)
Minimum temperature yesterday: 72 °F (at 3:00 AM)
Average temperature yesterday: 76 °F

High & Low Weather Summary for the Past Weeks

 TemperatureHumidityPressure
High91 °F (Jun 18, 4:00 PM)100% (Jun 16, 12:00 AM)30.04 "Hg (Jun 16, 12:00 AM)
Low70 °F (Jun 20, 4:00 AM)49% (Jun 22, 3:00 PM)29.77 "Hg (Jun 24, 4:00 PM)
Average78 °F86%29.95 "Hg
* Reported Jun 15 2:00 PM — Jun 30 2:00 PM, Bangui, Weather by CustomWeather, © 2016

Note: Actual official high and low records may vary slightly from our data, if they occured in-between our weather recording intervals... More about our weather records

Advertising

Bangui Weather History for the Previous 24 Hours

Scroll right to see more
 ConditionsComfort  
Time TempWeatherWind HumidityBarometerVisibility
2:00 PM
Thu, Jun 30
90 °FScattered clouds.6 mph59%29.92 "HgN/A
1:00 PM90 °FScattered clouds.5 mph55%29.95 "HgN/A
12:00 PM88 °FScattered clouds.5 mph62%29.98 "HgN/A
11:00 AM86 °FPartly sunny.2 mph66%30.01 "HgN/A
10:00 AM84 °FPartly sunny.1 mph70%30.04 "HgN/A
9:00 AM81 °FPartly sunny.3 mph79%30.04 "HgN/A
8:00 AM77 °FPartly sunny.No wind89%30.04 "HgN/A
7:00 AM73 °FScattered clouds.No wind100%30.01 "Hg4 mi
6:00 AM73 °FPassing clouds.1 mph100%29.98 "Hg4 mi
5:00 AM73 °FPassing clouds.No wind100%29.98 "Hg4 mi
3:00 AM73 °FPassing clouds.No wind100%29.95 "Hg5 mi
2:00 AM73 °FPassing clouds.No wind100%29.95 "Hg5 mi
1:00 AM73 °FPassing clouds.No wind100%29.98 "Hg5 mi
12:00 AM75 °FPassing clouds.No wind94%29.98 "Hg5 mi
11:00 PM
Wed, Jun 29
75 °FPassing clouds.No wind94%29.98 "Hg5 mi
10:00 PM75 °FPassing clouds.2 mph94%30.01 "Hg5 mi
9:00 PM75 °FPassing clouds.5 mph94%29.98 "Hg5 mi
8:00 PM77 °FPassing clouds.3 mph94%29.98 "Hg5 mi
7:00 PM77 °FPassing clouds.No wind89%29.95 "Hg5 mi
6:00 PM79 °FPassing clouds.No wind89%29.92 "HgN/A
5:00 PM81 °FPassing clouds.3 mph79%29.92 "HgN/A
4:00 PM81 °FScattered clouds.6 mph79%29.92 "HgN/A
3:00 PM82 °FPartly sunny.5 mph74%29.92 "HgN/A
Weather by CustomWeather, © 2016

See weather overviewHow to use our weather pages